THORAD AGENA D DEB, 19290

Orbit data source: Space-Track

THORAD AGENA D DEB, 19290 is space debris in SSO originally from a launch on Wed, 08 Apr 1970 UTC launched from the Air Force Western Test Range (AFWTR). Debris objects in space refer to the collection of defunct objects orbiting the Earth. Examples of debris include non-operational satellites, rocket bodies, and fragments generated from explosions, collisions, or faulty payload assembly.

Loading next visibility...
Identifier
19290, 1970-025PV
Orbit
SSO
Country
Flag of USUS
Related business
Manufacturer
Unknown
Mission
Spacecraft
Bus & Motor
Unknown
Mass
Unknown
Launch date (UTC)
1970-04-08 (56 years ago)
Launch vehicle
Unknown
Launch site
Air Force Western Test Range (AFWTR)
Object type
Payload
Rocket body
Debris
Shape & HBR
Unknown shape, 0.1 m
Radar Cross Section
Small (<0.1 m²)

Expand to show TLE details & history
Last TLE update: 1 day ago

TLE from 1 day ago
0 THORAD AGENA D DEB
1 19290U 70025PV  26062.32590627  .00000376  00000-0  57231-3 0  9992
2 19290  99.8870  12.2666 0026785 132.9388  19.9750 13.59090497 24126
Epoch: 2026-03-03T07:49Z
TLE epoch observation values (Epoch: 2026-03-03T07:49:18.301Z)
Latitude
26.58522°
Longitude
-81.18826°
Altitude
1,023.459 km
Speed
7.352 km/s
True Right ascension
13h 08m 58s
True Declination
26° 27' 10"
Sunlit
Object was in full shadow at epoch
Visualization orbit readout
Latitude
Unknown
Longitude
Unknown
Altitude
Unknown
Speed
Unknown
Apparent Right ascension
Unknown
Apparent Declination
Unknown
Sunlit
N/A
Visualization observer readout
Local Sidereal Time
13:45:20
Azimuth
Unknown
Elevation
Unknown
Doppler factor
Unknown
Orbital elements
Apogee altitude
1,056.158 km
Perigee altitude
1,016.439 km
Semi-major axis
7,414.435 km
Eccentricity
0.00268
Inclination
99.887°
RAAN
12.2666°
Arg. of periapsis
132.9388°
True anomaly
20.08018°
Mean anomaly
19.975°
Eccentric anomaly
20.02756°
Mean motion
3.39959 °/min
Orbital period
105.9 mins
BSTAR
0.00057231
Loading maneuver chart data...
Computing Atmospheric mass density...

Documentation

Showing up to 5 results
|